Погода в Дедиловских Выселки

Россия / Тульская область     54°19′50″N   38°02′31″E
темп.,
°C
ветер,
м/с
пор.,
м/с
влажн.,
%
обл.,
%
осадки,
мм/ч
давл.,
гПа
погр.,
м
17 апреля, сб
сб1700:00+10юв359190 6.2 1018111
03:00+9в359483 6.7 101992
06:00+8св489794 0.0 1019173
09:00+11всв698991 0.1 1018467
12:00+13в81174100 0.4 10181223
15:00+14юв71173100 1.1 10171258
18:00+10юв4793100 5.9 1017477
21:00+8ю4593100 10.7 1018331
18 апреля, вс
вс1800:00+7юз2391100 2.1 1018230
03:00+6ю2390100 2.3 101979
06:00+6ю1290100 0.0 101939
09:00+8юв227456 0.0 1019523
12:00+11юв3363100 0.5 10191082
15:00+8ююв3485100 2.1 1020417
18:00+8св4583100 2.7 1020473
21:00+7всв5993100 3.2 1021490
19 апреля, пн
пн1900:00+6всв5892100 0.0 1021448
03:00+6всв479498 0.0 1021335
06:00+5всв5896100 0.6 1021401
09:00+7всв6889100 0.8 1022567
12:00+8всв6883100 0.1 1021765
15:00+7всв71087100 0.4 1021672
18:00+7всв81287100 0.1 1021695
21:00+6в71289100 0.1 1021785
20 апреля, вт
вт2000:00+6в71186100 0.0 1020885
03:00+5всв71285100 0.1 1019876
06:00+4всв71491100 1.0 1017673
09:00+4всв81593100 2.3 1015696
12:00+5в91693100 1.6 1014778
15:00+5в101893100 2.3 1009898
18:00+6в122292100 8.1 1005990
21:00+7вюв122491100 14.0 10021252
21 апреля, ср
ср2100:00+9вюв101693100 0.9 1000909
03:00+9ююв9158776 5.0 999796
06:00+8ююв8148596 2.1 10011028
09:00+8ю91490100 2.8 10021274
12:00+6ююз81483100 0.1 10081120
15:00+10ююз81269100 0.2 10101597
18:00+8ююз7127298 0.1 10131167
21:00+7ю6138116 0.1 1015495